| time (UTC) | temp F | wind direction | speed MPH | gust MPH | rain 1hr in | rain 24hr in | rain mn in | humidity % | barometer mb |
| 20260902095252 | 58 | 127 | 3.0 | 10.0 | 0.00 | 0.00 | 0.00 | 84 | 1007.6 |
| 20260902094753 | 58 | 139 | 4.0 | 10.0 | 0.00 | 0.00 | 0.00 | 85 | 1007.6 |
| 20260902094252 | 58 | 130 | 2.0 | 9.0 | 0.00 | 0.00 | 0.00 | 86 | 1007.8 |
| 20260902093752 | 57 | 105 | 6.0 | 9.0 | 0.00 | 0.00 | 0.00 | 86 | 1007.9 |
| 20260902093252 | 57 | 143 | 4.0 | 9.0 | 0.00 | 0.00 | 0.00 | 88 | 1007.8 |
| 20260902092752 | 57 | 127 | 4.0 | 6.0 | 0.00 | 0.00 | 0.00 | 89 | 1007.8 |
| 20260902092252 | 57 | 113 | 4.0 | 5.0 | 0.00 | 0.00 | 0.00 | 89 | 1007.9 |
| 20260902091752 | 57 | 116 | 0.0 | 4.0 | 0.00 | 0.00 | 0.00 | 89 | 1007.9 |
| 20260902091252 | 57 | 111 | 1.0 | 3.0 | 0.00 | 0.00 | 0.00 | 89 | 1008.1 |
| 20260902090752 | 57 | 110 | 3.0 | 5.0 | 0.00 | 0.00 | 0.00 | 89 | 1008.1 |
| 20260902090252 | 57 | 115 | 2.0 | 5.0 | 0.00 | 0.00 | 0.00 | 89 | 1008.2 |
| 20260902085252 | 57 | 132 | 3.0 | 6.0 | 0.00 | 0.00 | 0.00 | 89 | 1008.3 |
| 20260902084751 | 57 | 105 | 1.0 | 6.0 | 0.00 | 0.00 | 0.00 | 89 | 1008.4 |
| 20260902083752 | 57 | 113 | 2.0 | 6.0 | 0.00 | 0.00 | 0.00 | 90 | 1008.5 |
| 20260902082751 | 57 | 127 | 3.0 | 9.0 | 0.00 | 0.00 | 0.00 | 90 | 1008.5 |
| 20260902081751 | 57 | 127 | 6.0 | 10.0 | 0.00 | 0.00 | 0.00 | 90 | 1008.6 |
| 20260902081251 | 57 | 112 | 3.0 | 9.0 | 0.00 | 0.00 | 0.00 | 90 | 1008.6 |
| 20260902080750 | 57 | 122 | 5.0 | 10.0 | 0.00 | 0.00 | 0.00 | 90 | 1008.6 |
| 20260902080251 | 57 | 177 | 3.0 | 10.0 | 0.00 | 0.00 | 0.00 | 91 | 1008.5 |
| 20260902075751 | 57 | 104 | 5.0 | 11.0 | 0.00 | 0.00 | 0.00 | 91 | 1008.5 |
| 20260902075250 | 57 | 141 | 4.0 | 11.0 | 0.00 | 0.00 | 0.00 | 91 | 1008.6 |
| 20260902074750 | 57 | 126 | 5.0 | 12.0 | 0.00 | 0.00 | 0.00 | 91 | 1008.7 |
| 20260902074250 | 57 | 153 | 8.0 | 12.0 | 0.00 | 0.00 | 0.00 | 91 | 1008.7 |
| 20260902073749 | 57 | 123 | 9.0 | 11.0 | 0.00 | 0.00 | 0.00 | 91 | 1008.7 |
| 20260902073250 | 57 | 99 | 3.0 | 8.0 | 0.00 | 0.00 | 0.00 | 91 | 1008.7 |
| 20260902072750 | 57 | 132 | 4.0 | 10.0 | 0.00 | 0.00 | 0.00 | 91 | 1008.7 |
| 20260902072250 | 57 | 133 | 2.0 | 10.0 | 0.00 | 0.00 | 0.00 | 91 | 1008.8 |
| 20260902071249 | 57 | 145 | 5.0 | 8.0 | 0.00 | 0.00 | 0.00 | 91 | 1008.9 |
| 20260902070749 | 57 | 142 | 1.0 | 6.0 | 0.00 | 0.00 | 0.00 | 91 | 1008.9 |
| 20260902070249 | 58 | 198 | 1.0 | 7.0 | 0.00 | 0.00 | 0.00 | 91 | 1008.9 |
| 20260902065749 | 58 | 109 | 2.0 | 7.0 | 0.00 | 0.00 | 0.00 | 91 | 1009.0 |
| 20260902065249 | 58 | 88 | 4.0 | 7.0 | 0.00 | 0.00 | 0.00 | 91 | 1008.9 |
| 20260902064749 | 58 | 103 | 3.0 | 8.0 | 0.00 | 0.00 | 0.00 | 90 | 1008.9 |
| 20260902064248 | 58 | 180 | 3.0 | 8.0 | 0.00 | 0.00 | 0.00 | 90 | 1009.0 |
| 20260902063748 | 58 | 143 | 2.0 | 8.0 | 0.00 | 0.00 | 0.00 | 90 | 1009.0 |
| 20260902063248 | 58 | 154 | 3.0 | 9.0 | 0.00 | 0.00 | 0.00 | 90 | 1009.0 |
| 20260902062748 | 58 | 94 | 5.0 | 9.0 | 0.00 | 0.00 | 0.00 | 90 | 1009.0 |
| 20260902062248 | 58 | 129 | 7.0 | 9.0 | 0.00 | 0.00 | 0.00 | 90 | 1009.1 |
| 20260902061748 | 58 | 128 | 5.0 | 8.0 | 0.00 | 0.00 | 0.00 | 90 | 1009.0 |
| 20260902061248 | 58 | 155 | 2.0 | 9.0 | 0.00 | 0.00 | 0.00 | 90 | 1009.0 |
| 20260902060247 | 58 | 63 | 5.0 | 8.0 | 0.00 | 0.00 | 0.00 | 89 | 1009.2 |
| 20260902055748 | 58 | 87 | 3.0 | 7.0 | 0.00 | 0.00 | 0.00 | 89 | 1009.2 |
| 20260902055247 | 59 | 172 | 3.0 | 6.0 | 0.00 | 0.00 | 0.00 | 88 | 1009.2 |
| 20260902054748 | 59 | 130 | 3.0 | 5.0 | 0.00 | 0.00 | 0.00 | 88 | 1009.4 |
| 20260902054247 | 59 | 103 | 0.0 | 4.0 | 0.00 | 0.00 | 0.00 | 88 | 1009.4 |
| 20260902053247 | 59 | 150 | 2.0 | 6.0 | 0.00 | 0.00 | 0.00 | 87 | 1009.6 |
| 20260902052747 | 59 | 158 | 3.0 | 6.0 | 0.00 | 0.00 | 0.00 | 87 | 1009.6 |
| 20260902052247 | 59 | 135 | 3.0 | 6.0 | 0.00 | 0.00 | 0.00 | 87 | 1009.6 |
| 20260902051747 | 59 | 127 | 1.0 | 6.0 | 0.00 | 0.00 | 0.00 | 88 | 1009.6 |
| 20260902051247 | 59 | 139 | 2.0 | 4.0 | 0.00 | 0.00 | 0.00 | 88 | 1009.6 |
| 20260902050747 | 59 | 207 | 1.0 | 6.0 | 0.00 | 0.00 | 0.00 | 88 | 1009.6 |
| 20260902050246 | 59 | 140 | 1.0 | 6.0 | 0.00 | 0.00 | 0.00 | 88 | 1009.7 |
| 20260902045746 | 59 | 142 | 2.0 | 5.0 | 0.00 | 0.00 | 0.00 | 88 | 1009.7 |
| 20260902045246 | 59 | 138 | 0.0 | 5.0 | 0.00 | 0.00 | 0.00 | 88 | 1009.7 |
| 20260902044746 | 59 | 110 | 2.0 | 4.0 | 0.00 | 0.00 | 0.00 | 88 | 1009.7 |
| 20260902044246 | 59 | 147 | 1.0 | 4.0 | 0.00 | 0.00 | 0.00 | 88 | 1009.6 |
| 20260902043746 | 59 | 148 | 2.0 | 5.0 | 0.00 | 0.00 | 0.00 | 88 | 1009.6 |
| 20260902043246 | 60 | 123 | 3.0 | 5.0 | 0.00 | 0.00 | 0.00 | 88 | 1009.6 |
| 20260902042746 | 60 | 122 | 1.0 | 5.0 | 0.00 | 0.00 | 0.00 | 87 | 1009.7 |
| 20260902042245 | 60 | 117 | 4.0 | 6.0 | 0.00 | 0.00 | 0.00 | 87 | 1009.8 |
| 20260902041746 | 60 | 134 | 3.0 | 6.0 | 0.00 | 0.00 | 0.00 | 87 | 1009.8 |
| 20260902041245 | 60 | 115 | 4.0 | 5.0 | 0.00 | 0.00 | 0.00 | 86 | 1009.7 |
| 20260902040745 | 60 | 117 | 4.0 | 5.0 | 0.00 | 0.00 | 0.00 | 86 | 1009.8 |
| 20260902040245 | 60 | 126 | 3.0 | 5.0 | 0.00 | 0.00 | 0.00 | 86 | 1009.8 |
| 20260902035744 | 60 | 125 | 1.0 | 5.0 | 0.00 | 0.00 | 0.00 | 85 | 1009.8 |
| 20260902035245 | 60 | 113 | 0.0 | 4.0 | 0.00 | 0.00 | 0.00 | 84 | 1009.7 |
| 20260902034745 | 60 | 106 | 1.0 | 4.0 | 0.00 | 0.00 | 0.00 | 84 | 1009.7 |
| 20260902033744 | 60 | 330 | 1.0 | 1.0 | 0.00 | 0.00 | 0.00 | 83 | 1009.7 |
| 20260902033245 | 60 | 330 | 0.0 | 0.0 | 0.00 | 0.00 | 0.00 | 83 | 1009.7 |
| 20260902032744 | 60 | 330 | 0.0 | 3.0 | 0.00 | 0.00 | 0.00 | 82 | 1009.6 |
| 20260902032244 | 60 | 330 | 0.0 | 3.0 | 0.00 | 0.00 | 0.00 | 82 | 1009.6 |
| 20260902031744 | 60 | 298 | 2.0 | 2.0 | 0.00 | 0.00 | 0.00 | 82 | 1009.7 |
| 20260902031244 | 60 | 292 | 0.0 | 0.0 | 0.00 | 0.00 | 0.00 | 82 | 1009.7 |
| 20260902030243 | 60 | 292 | 0.0 | 0.0 | 0.00 | 0.00 | 0.00 | 82 | 1009.7 |
| 20260902025743 | 60 | 291 | 0.0 | 0.0 | 0.00 | 0.00 | 0.00 | 82 | 1009.6 |
| 20260902025243 | 61 | 291 | 0.0 | 0.0 | 0.00 | 0.00 | 0.00 | 81 | 1009.7 |
| 20260902024744 | 61 | 283 | 0.0 | 1.0 | 0.00 | 0.00 | 0.00 | 81 | 1009.7 |
| 20260902024243 | 61 | 283 | 0.0 | 1.0 | 0.00 | 0.00 | 0.00 | 81 | 1009.6 |
| 20260902023743 | 61 | 283 | 0.0 | 0.0 | 0.00 | 0.00 | 0.00 | 81 | 1009.6 |
| 20260902023243 | 61 | 283 | 0.0 | 2.0 | 0.00 | 0.00 | 0.00 | 81 | 1009.7 |
| 20260902022743 | 61 | 283 | 0.0 | 3.0 | 0.00 | 0.00 | 0.00 | 81 | 1009.6 |
| 20260902022243 | 61 | 283 | 2.0 | 3.0 | 0.00 | 0.00 | 0.00 | 80 | 1009.6 |
| 20260902021743 | 61 | 283 | 1.0 | 2.0 | 0.00 | 0.00 | 0.00 | 80 | 1009.7 |
| 20260902021242 | 61 | 313 | 0.0 | 4.0 | 0.00 | 0.00 | 0.00 | 81 | 1009.8 |
| 20260902020742 | 62 | 313 | 0.0 | 4.0 | 0.00 | 0.00 | 0.00 | 80 | 1009.7 |
| 20260902020243 | 61 | 276 | 0.0 | 3.0 | 0.00 | 0.00 | 0.00 | 80 | 1009.7 |
| 20260902015742 | 61 | 276 | 2.0 | 3.0 | 0.00 | 0.00 | 0.00 | 80 | 1009.7 |
| 20260902015242 | 61 | 288 | 1.0 | 2.0 | 0.00 | 0.00 | 0.00 | 80 | 1009.7 |
| 20260902014742 | 61 | 288 | 0.0 | 3.0 | 0.00 | 0.00 | 0.00 | 81 | 1009.7 |
| 20260902014242 | 61 | 288 | 1.0 | 3.0 | 0.00 | 0.00 | 0.00 | 80 | 1009.8 |
| 20260902013242 | 61 | 252 | 1.0 | 4.0 | 0.00 | 0.00 | 0.00 | 80 | 1009.8 |
| 20260902012241 | 61 | 282 | 2.0 | 4.0 | 0.00 | 0.00 | 0.00 | 80 | 1009.7 |
| 20260902011742 | 61 | 333 | 2.0 | 5.0 | 0.00 | 0.00 | 0.00 | 80 | 1009.7 |
| 20260902011241 | 61 | 302 | 2.0 | 5.0 | 0.00 | 0.00 | 0.00 | 80 | 1009.7 |
| 20260902010741 | 61 | 265 | 0.0 | 3.0 | 0.00 | 0.00 | 0.00 | 80 | 1009.7 |
| 20260902010241 | 61 | 288 | 1.0 | 4.0 | 0.00 | 0.00 | 0.00 | 80 | 1009.7 |
| 20260902005741 | 61 | 286 | 2.0 | 5.0 | 0.00 | 0.00 | 0.00 | 80 | 1009.8 |
| 20260902005241 | 61 | 325 | 2.0 | 5.0 | 0.00 | 0.00 | 0.00 | 80 | 1009.8 |
| 20260902004740 | 62 | 316 | 1.0 | 5.0 | 0.00 | 0.00 | 0.00 | 80 | 1009.8 |
| 20260902004241 | 61 | 271 | 1.0 | 6.0 | 0.00 | 0.00 | 0.00 | 80 | 1009.8 |
| 20260902003741 | 61 | 259 | 1.0 | 6.0 | 0.00 | 0.00 | 0.00 | 81 | 1009.8 |
| 20260902003241 | 61 | 268 | 3.0 | 6.0 | 0.00 | 0.00 | 0.00 | 81 | 1009.9 |
| 20260902002740 | 61 | 289 | 5.0 | 5.0 | 0.00 | 0.00 | 0.00 | 81 | 1009.8 |
| 20260902001239 | 61 | 278 | 3.0 | 6.0 | 0.00 | 0.00 | 0.00 | 81 | 1009.9 |
| 20260902000740 | 61 | 289 | 3.0 | 6.0 | 0.00 | 0.00 | 0.00 | 81 | 1009.9 |
| 20260902000241 | 61 | 278 | 2.0 | 5.0 | 0.00 | 0.00 | 0.00 | 81 | 1009.9 |
| 20260901235740 | 61 | 266 | 3.0 | 3.0 | 0.00 | 0.00 | 0.00 | 81 | 1009.8 |
| 20260901235240 | 61 | 267 | 1.0 | 6.0 | 0.00 | 0.00 | 0.00 | 82 | 1009.9 |
| 20260901234239 | 61 | 264 | 4.0 | 6.0 | 0.00 | 0.00 | 0.00 | 82 | 1009.9 |
| 20260901233739 | 61 | 283 | 3.0 | 6.0 | 0.00 | 0.00 | 0.00 | 82 | 1009.9 |
| 20260901233239 | 61 | 310 | 4.0 | 7.0 | 0.00 | 0.00 | 0.00 | 81 | 1009.9 |
| 20260901232238 | 62 | 311 | 6.0 | 7.0 | 0.00 | 0.00 | 0.00 | 81 | 1009.9 |
| 20260901231738 | 62 | 288 | 2.0 | 6.0 | 0.00 | 0.00 | 0.00 | 80 | 1009.9 |
| 20260901231238 | 62 | 303 | 3.0 | 5.0 | 0.00 | 0.00 | 0.00 | 81 | 1009.9 |
| 20260901230238 | 62 | 255 | 3.0 | 6.0 | 0.00 | 0.00 | 0.00 | 81 | 1009.8 |
| 20260901225738 | 62 | 292 | 3.0 | 6.0 | 0.00 | 0.00 | 0.00 | 81 | 1009.7 |
| 20260901225238 | 62 | 294 | 3.0 | 7.0 | 0.00 | 0.00 | 0.00 | 81 | 1009.8 |
| 20260901224738 | 62 | 290 | 4.0 | 7.0 | 0.00 | 0.00 | 0.00 | 81 | 1009.7 |
| 20260901224238 | 62 | 236 | 3.0 | 7.0 | 0.00 | 0.00 | 0.00 | 81 | 1009.8 |
| 20260901223738 | 61 | 283 | 3.0 | 5.0 | 0.00 | 0.00 | 0.00 | 82 | 1009.7 |
| 20260901223237 | 61 | 265 | 3.0 | 6.0 | 0.00 | 0.00 | 0.00 | 82 | 1009.8 |
| 20260901222737 | 61 | 278 | 4.0 | 6.0 | 0.00 | 0.00 | 0.00 | 83 | 1009.8 |
| 20260901222238 | 61 | 283 | 2.0 | 6.0 | 0.00 | 0.00 | 0.00 | 83 | 1009.9 |
| 20260901221237 | 61 | 294 | 4.0 | 6.0 | 0.00 | 0.00 | 0.00 | 82 | 1009.9 |
| 20260901220237 | 62 | 280 | 3.0 | 6.0 | 0.00 | 0.00 | 0.00 | 82 | 1010.0 |
| 20260901215737 | 62 | 292 | 4.0 | 4.0 | 0.00 | 0.00 | 0.00 | 82 | 1010.2 |
| 20260901215236 | 63 | 282 | 3.0 | 4.0 | 0.00 | 0.00 | 0.00 | 81 | 1010.2 |
| 20260901214736 | 63 | 280 | 0.0 | 2.0 | 0.00 | 0.00 | 0.00 | 81 | 1010.1 |
| 20260901214237 | 63 | 279 | 1.0 | 3.0 | 0.00 | 0.00 | 0.00 | 81 | 1010.2 |
| 20260901213736 | 64 | 279 | 1.0 | 3.0 | 0.00 | 0.00 | 0.00 | 80 | 1010.2 |
| 20260901213236 | 64 | 1 | 0.0 | 3.0 | 0.00 | 0.00 | 0.00 | 81 | 1010.3 |
| 20260901211736 | 65 | 61 | 1.0 | 2.0 | 0.00 | 0.00 | 0.00 | 81 | 1010.4 |
| 20260901211236 | 64 | 90 | 1.0 | 3.0 | 0.00 | 0.00 | 0.00 | 82 | 1010.4 |
| 20260901210735 | 64 | 90 | 0.0 | 3.0 | 0.00 | 0.00 | 0.00 | 82 | 1010.5 |
| 20260901210235 | 63 | 104 | 0.0 | 3.0 | 0.00 | 0.00 | 0.00 | 83 | 1010.5 |
| 20260901205735 | 63 | 82 | 2.0 | 3.0 | 0.00 | 0.00 | 0.00 | 82 | 1010.5 |
| 20260901205236 | 63 | 98 | 2.0 | 3.0 | 0.00 | 0.00 | 0.00 | 83 | 1010.6 |
| 20260901204735 | 63 | 110 | 1.0 | 4.0 | 0.00 | 0.00 | 0.00 | 83 | 1010.6 |
| 20260901204235 | 62 | 122 | 2.0 | 4.0 | 0.00 | 0.00 | 0.00 | 84 | 1010.6 |
| 20260901203235 | 62 | 121 | 2.0 | 5.0 | 0.00 | 0.00 | 0.00 | 84 | 1010.6 |
| 20260901202235 | 62 | 117 | 3.0 | 5.0 | 0.00 | 0.00 | 0.00 | 85 | 1010.6 |
| 20260901201735 | 61 | 60 | 4.0 | 5.0 | 0.00 | 0.00 | 0.00 | 85 | 1010.5 |
| 20260901201234 | 61 | 82 | 2.0 | 5.0 | 0.00 | 0.00 | 0.00 | 85 | 1010.5 |
| 20260901200734 | 61 | 54 | 2.0 | 5.0 | 0.00 | 0.00 | 0.00 | 84 | 1010.5 |
| 20260901200234 | 61 | 91 | 1.0 | 5.0 | 0.00 | 0.00 | 0.00 | 85 | 1010.5 |
| 20260901195234 | 61 | 67 | 1.0 | 5.0 | 0.00 | 0.00 | 0.00 | 85 | 1010.7 |
| 20260901194734 | 61 | 77 | 2.0 | 5.0 | 0.00 | 0.00 | 0.00 | 85 | 1010.6 |
| 20260901194233 | 61 | 74 | 3.0 | 5.0 | 0.00 | 0.00 | 0.00 | 86 | 1010.7 |
| 20260901192733 | 61 | 66 | 2.0 | 5.0 | 0.00 | 0.00 | 0.00 | 85 | 1010.8 |
| 20260901192233 | 62 | 84 | 4.0 | 4.0 | 0.00 | 0.00 | 0.00 | 84 | 1010.7 |
| 20260901191233 | 61 | 112 | 0.0 | 4.0 | 0.00 | 0.00 | 0.00 | 86 | 1010.7 |
| 20260901190803 | 61 | 41 | 2.0 | 4.0 | 0.00 | 0.00 | 0.00 | 86 | 1010.8 |
| 20260901190233 | 61 | 10 | 3.0 | 4.0 | 0.00 | 0.00 | 0.00 | 85 | 1010.8 |
| 20260901185733 | 61 | 27 | 3.0 | 4.0 | 0.00 | 0.00 | 0.00 | 86 | 1010.8 |
| 20260901185233 | 61 | 40 | 1.0 | 4.0 | 0.00 | 0.00 | 0.00 | 85 | 1010.8 |
| 20260901184732 | 60 | 342 | 2.0 | 5.0 | 0.00 | 0.00 | 0.00 | 87 | 1010.9 |
| 20260901184232 | 59 | 300 | 4.0 | 6.0 | 0.00 | 0.00 | 0.00 | 87 | 1010.8 |
| 20260901183732 | 59 | 259 | 1.0 | 6.0 | 0.00 | 0.00 | 0.00 | 88 | 1010.8 |
| 20260901183232 | 59 | 281 | 3.0 | 5.0 | 0.00 | 0.00 | 0.00 | 88 | 1010.8 |
| 20260901182732 | 58 | 277 | 3.0 | 5.0 | 0.00 | 0.00 | 0.00 | 88 | 1010.8 |
| 20260901182232 | 58 | 278 | 3.0 | 5.0 | 0.00 | 0.00 | 0.00 | 88 | 1010.8 |
| 20260901181232 | 58 | 303 | 1.0 | 4.0 | 0.00 | 0.00 | 0.00 | 89 | 1010.7 |
| 20260901180732 | 58 | 283 | 1.0 | 5.0 | 0.00 | 0.00 | 0.00 | 89 | 1010.8 |
| 20260901180302 | 58 | 290 | 4.0 | 5.0 | 0.00 | 0.00 | 0.00 | 88 | 1010.8 |
| 20260901175732 | 58 | 267 | 2.0 | 5.0 | 0.00 | 0.00 | 0.00 | 88 | 1010.8 |
| 20260901175232 | 58 | 281 | 2.0 | 4.0 | 0.00 | 0.00 | 0.00 | 88 | 1010.8 |
| 20260901174732 | 59 | 302 | 0.0 | 6.0 | 0.00 | 0.00 | 0.00 | 87 | 1010.7 |
| 20260901174231 | 60 | 32 | 2.0 | 6.0 | 0.00 | 0.00 | 0.00 | 86 | 1010.7 |
| 20260901173731 | 61 | 310 | 2.0 | 8.0 | 0.00 | 0.00 | 0.00 | 87 | 1010.6 |
| 20260901173232 | 60 | 148 | 0.0 | 8.0 | 0.00 | 0.00 | 0.00 | 88 | 1010.6 |
| 20260901172731 | 61 | 115 | 3.0 | 7.0 | 0.00 | 0.00 | 0.00 | 88 | 1010.5 |
| 20260901172231 | 60 | 122 | 2.0 | 8.0 | 0.00 | 0.00 | 0.00 | 88 | 1010.6 |
| 20260901171231 | 60 | 125 | 6.0 | 10.0 | 0.00 | 0.00 | 0.00 | 88 | 1010.5 |
| 20260901170731 | 60 | 139 | 4.0 | 10.0 | 0.00 | 0.00 | 0.00 | 89 | 1010.4 |
| 20260901170301 | 60 | 153 | 4.0 | 8.0 | 0.00 | 0.00 | 0.00 | 89 | 1010.5 |
| 20260901165731 | 59 | 117 | 3.0 | 10.0 | 0.00 | 0.00 | 0.00 | 90 | 1010.4 |
| 20260901165301 | 59 | 179 | 3.0 | 10.0 | 0.00 | 0.00 | 0.00 | 90 | 1010.4 |
| 20260901164801 | 59 | 159 | 8.0 | 8.0 | 0.00 | 0.00 | 0.00 | 90 | 1010.4 |
| 20260901164230 | 59 | 111 | 2.0 | 8.0 | 0.00 | 0.00 | 0.00 | 92 | 1010.4 |
| 20260901163730 | 58 | 142 | 3.0 | 10.0 | 0.00 | 0.00 | 0.00 | 92 | 1010.3 |
| 20260901163300 | 58 | 196 | 5.0 | 10.0 | 0.00 | 0.00 | 0.00 | 92 | 1010.3 |
| 20260901162730 | 57 | 210 | 6.0 | 8.0 | 0.00 | 0.00 | 0.00 | 92 | 1010.3 |
| 20260901162300 | 57 | 164 | 4.0 | 10.0 | 0.00 | 0.00 | 0.00 | 93 | 1010.3 |
| 20260901161800 | 57 | 168 | 7.0 | 10.0 | 0.00 | 0.00 | 0.00 | 93 | 1010.4 |
| 20260901161300 | 57 | 177 | 4.0 | 8.0 | 0.00 | 0.00 | 0.00 | 93 | 1010.4 |
| 20260901160800 | 57 | 154 | 3.0 | 8.0 | 0.00 | 0.00 | 0.00 | 93 | 1010.4 |
| 20260901160259 | 57 | 109 | 3.0 | 8.0 | 0.00 | 0.00 | 0.00 | 93 | 1010.4 |
| 20260901155800 | 56 | 134 | 2.0 | 7.0 | 0.00 | 0.00 | 0.00 | 93 | 1010.5 |
| 20260901155259 | 56 | 140 | 4.0 | 5.0 | 0.00 | 0.00 | 0.00 | 93 | 1010.5 |
| 20260901154729 | 56 | 122 | 0.0 | 5.0 | 0.00 | 0.00 | 0.00 | 93 | 1010.5 |
| 20260901154259 | 56 | 113 | 2.0 | 6.0 | 0.00 | 0.00 | 0.00 | 93 | 1010.5 |
| 20260901153759 | 56 | 159 | 4.0 | 8.0 | 0.00 | 0.00 | 0.00 | 93 | 1010.5 |
| 20260901152758 | 56 | 141 | 5.0 | 8.0 | 0.00 | 0.00 | 0.00 | 93 | 1010.5 |
| 20260901152259 | 55 | 160 | 1.0 | 4.0 | 0.00 | 0.00 | 0.00 | 93 | 1010.4 |
| 20260901151728 | 55 | 148 | 3.0 | 6.0 | 0.00 | 0.00 | 0.00 | 93 | 1010.3 |
| 20260901151228 | 55 | 215 | 2.0 | 6.0 | 0.00 | 0.00 | 0.00 | 93 | 1010.2 |
| 20260901150728 | 55 | 162 | 4.0 | 6.0 | 0.00 | 0.00 | 0.00 | 93 | 1010.2 |
| 20260901150259 | 55 | 152 | 2.0 | 4.0 | 0.00 | 0.00 | 0.00 | 93 | 1010.2 |
| 20260901145729 | 55 | 169 | 1.0 | 4.0 | 0.00 | 0.00 | 0.00 | 93 | 1010.3 |
| 20260901145258 | 54 | 159 | 3.0 | 4.0 | 0.00 | 0.00 | 0.00 | 93 | 1010.2 |
| 20260901144728 | 54 | 162 | 3.0 | 4.0 | 0.00 | 0.00 | 0.00 | 93 | 1010.2 |
| 20260901144228 | 54 | 129 | 0.0 | 4.0 | 0.00 | 0.00 | 0.00 | 93 | 1010.2 |
| 20260901143228 | 54 | 147 | 2.0 | 4.0 | 0.00 | 0.00 | 0.00 | 93 | 1010.2 |
| 20260901142758 | 54 | 157 | 4.0 | 4.0 | 0.00 | 0.00 | 0.00 | 93 | 1010.2 |
| 20260901142258 | 54 | 178 | 1.0 | 4.0 | 0.00 | 0.00 | 0.00 | 93 | 1010.1 |
| 20260901141258 | 54 | 96 | 3.0 | 6.0 | 0.00 | 0.00 | 0.00 | 93 | 1010.1 |
| 20260901140757 | 54 | 139 | 2.0 | 5.0 | 0.00 | 0.00 | 0.00 | 92 | 1010.2 |
| 20260901140257 | 54 | 140 | 2.0 | 5.0 | 0.00 | 0.00 | 0.00 | 92 | 1010.1 |
| 20260901135757 | 54 | 145 | 1.0 | 4.0 | 0.00 | 0.00 | 0.00 | 92 | 1010.2 |
| 20260901135257 | 54 | 151 | 1.0 | 2.0 | 0.00 | 0.00 | 0.00 | 92 | 1010.1 |
| 20260901134257 | 54 | 163 | 0.0 | 4.0 | 0.00 | 0.00 | 0.00 | 92 | 1010.1 |
| 20260901132256 | 54 | 186 | 1.0 | 5.0 | 0.00 | 0.00 | 0.00 | 91 | 1009.9 |
| 20260901131756 | 55 | 195 | 4.0 | 5.0 | 0.00 | 0.00 | 0.00 | 91 | 1009.8 |
| 20260901130255 | 55 | 195 | 2.0 | 4.0 | 0.00 | 0.00 | 0.00 | 90 | 1009.7 |
| 20260901125756 | 55 | 214 | 2.0 | 4.0 | 0.00 | 0.00 | 0.00 | 91 | 1009.7 |
| 20260901125256 | 55 | 207 | 4.0 | 4.0 | 0.00 | 0.00 | 0.00 | 91 | 1009.7 |
| 20260901124755 | 54 | 203 | 2.0 | 3.0 | 0.00 | 0.00 | 0.00 | 92 | 1009.7 |
| 20260901124255 | 54 | 223 | 1.0 | 4.0 | 0.00 | 0.00 | 0.00 | 91 | 1009.7 |
| 20260901123255 | 54 | 213 | 1.0 | 3.0 | 0.00 | 0.00 | 0.00 | 91 | 1009.7 |
| 20260901122755 | 54 | 195 | 1.0 | 3.0 | 0.00 | 0.00 | 0.00 | 91 | 1009.7 |
| 20260901122255 | 54 | 188 | 0.0 | 3.0 | 0.00 | 0.00 | 0.00 | 91 | 1009.8 |
| 20260901121755 | 54 | 234 | 0.0 | 3.0 | 0.00 | 0.00 | 0.00 | 91 | 1009.7 |
| 20260901121255 | 54 | 212 | 0.0 | 3.0 | 0.00 | 0.00 | 0.00 | 91 | 1009.7 |
| 20260901120254 | 54 | 208 | 1.0 | 4.0 | 0.00 | 0.00 | 0.00 | 90 | 1009.7 |
| 20260901115755 | 54 | 205 | 2.0 | 4.0 | 0.00 | 0.00 | 0.00 | 90 | 1009.7 |
| 20260901115255 | 54 | 200 | 2.0 | 4.0 | 0.00 | 0.00 | 0.00 | 90 | 1009.6 |
| 20260901114755 | 55 | 205 | 1.0 | 4.0 | 0.00 | 0.00 | 0.00 | 90 | 1009.7 |
| 20260901114254 | 55 | 200 | 1.0 | 3.0 | 0.00 | 0.00 | 0.00 | 90 | 1009.7 |
| 20260901113754 | 55 | 221 | 2.0 | 4.0 | 0.00 | 0.00 | 0.00 | 90 | 1009.7 |
| 20260901113254 | 54 | 214 | 2.0 | 4.0 | 0.00 | 0.00 | 0.00 | 90 | 1009.7 |
| 20260901112754 | 54 | 207 | 0.0 | 4.0 | 0.00 | 0.00 | 0.00 | 91 | 1009.7 |
| 20260901112254 | 54 | 212 | 2.0 | 4.0 | 0.00 | 0.00 | 0.00 | 91 | 1009.8 |
| 20260901111753 | 54 | 200 | 0.0 | 0.0 | 0.00 | 0.00 | 0.00 | 91 | 1009.8 |
| 20260901111254 | 54 | 200 | 0.0 | 0.0 | 0.00 | 0.00 | 0.00 | 92 | 1009.8 |
| 20260901110754 | 54 | 206 | 0.0 | 0.0 | 0.00 | 0.00 | 0.00 | 92 | 1009.8 |
| 20260901110253 | 53 | 206 | 0.0 | 2.0 | 0.00 | 0.00 | 0.00 | 91 | 1009.8 |
| 20260901105253 | 54 | 206 | 0.0 | 4.0 | 0.00 | 0.00 | 0.00 | 91 | 1009.9 |
| 20260901104753 | 54 | 193 | 0.0 | 4.0 | 0.00 | 0.00 | 0.00 | 90 | 1009.9 |
| 20260901104253 | 54 | 203 | 2.0 | 3.0 | 0.00 | 0.00 | 0.00 | 91 | 1009.9 |
| 20260901103253 | 54 | 201 | 0.0 | 0.0 | 0.00 | 0.00 | 0.00 | 91 | 1009.8 |
| 20260901102752 | 54 | 201 | 0.0 | 0.0 | 0.00 | 0.00 | 0.00 | 92 | 1009.7 |
| 20260901102253 | 54 | 201 | 0.0 | 0.0 | 0.00 | 0.00 | 0.00 | 91 | 1009.7 |
| 20260901101753 | 54 | 201 | 0.0 | 0.0 | 0.00 | 0.00 | 0.00 | 92 | 1009.8 |
| 20260901101252 | 54 | 200 | 0.0 | 0.0 | 0.00 | 0.00 | 0.00 | 92 | 1009.8 |
| 20260901100752 | 54 | 201 | 0.0 | 0.0 | 0.00 | 0.00 | 0.00 | 92 | 1009.9 |
| 20260901100252 | 54 | 201 | 0.0 | 0.0 | 0.00 | 0.00 | 0.00 | 92 | 1009.9 |
| 20260901095752 | 54 | 201 | 0.0 | 0.0 | 0.00 | 0.00 | 0.00 | 92 | 1009.9 |